Tracking 29892 objects as of 21-Nov-2024
HD Live streaming from Space Station
objects crossing your sky now

XJY-7

Track XJY-7 now!
10-day predictions


NORAD ID: 47298
Int'l Code: 2020-102C
Perigee: 462.1 km
Apogee: 474.2 km
Inclination: 97.4 °
Period: 93.8 minutes
Semi major axis: 6839 km
RCS: Unknown
Launch date: December 22, 2020
Source: People's Republic of China (PRC)
Launch site: Wenchang Satellite Launch Center (WSC)
Your satellite tracking list
Your tracking list is empty




NASA's NSSDC Master Catalog

Two Line Element Set (TLE):
1 47298U 20102C   24326.15147398  .00029872  00000-0  87973-3 0  9995
2 47298  97.3811  62.1755 0008836  18.3831 341.7730 15.34963806217882
Source of the keplerian elements: AFSPC